EHI
0 0 0 0 0 0 0 0 0 0 0 0 0 0 0 0 0 0 0 0 0 0 0 0 0 0 0 0 0 0 0 0 0 0 0 0 0 0 0 0 0 0 0 0
0 0 0 0 0 0 0 0 0 0 0 0 0 0 0 0 0 0 0 0 0 0 0 0 0 0 0 0 0 0 0 0 0 0 0 0 0 0 0 0 0 0 0 0
0 0 0 0 0 0 0 0 0 0 0 0 0 0 0 0 0 0 0 0 0 0 0 0 0 0 0 0 0 0 0 0 0 0 0 0 0 0 0 0 0 0 0 0
0 0 0 0 0 0 0 0 0 0 0 0 0 0 0 0 0 0 0 0 0 0 0 0 0 0 0 0 0 0 0 0 0 0 0 0 0 0 0 0 0 0 0 0
0 0 0 0 0 0 0 0 0 0 0 0 0 0 0 0 0 0 0 0 0 0 0 0 0 0 0 0 0 0 0 0 0 0 0 0 0 0 0 0 0 0 0 0
0 0 0 0 0 0 0 0 0 0 0 0 0 0 0 0 0 0 0 0 0 0 0 0 0 0 0 0 0 0 0 0 0 0 0 0 0 0 0 0 0 0 0 0
0 0 0 0 0 0 0 0 0 0 0 0 0 0 0 0 0 0 0 0 0 0 0 0 0 0 0 0 0 0 0 0 0 0 0 0 0 0 0 0 0 0 0 0
0 0 0 0 0 0 0 0 0 0 0 0 0 0 0 0 0 0 0 0 0 0 0 0 0 0 0 0 0 0 0 0 0 0 0 0 0 0 0 0 0 0 0 0
0 0 0 0 0 0 0 0 0 0 0 0 0 0 0 0 0 0 0 0 0 0 0 0 0 0 0 0 0 0 0 0 0 0 0 0 0 0 0 0 0 0 0 0
0 0 0 0 0 0 0 0 0 0 0 0 0 0 0 0 0 0 0 0 0 0 0 0 0 0 0 0 0 0 0 0 0 0 0 0 0 0 0 0 0 0 0 0
0 0 0 0 0 0 0 0 0 0 0 0 0 0 0 0 0 0 0 0 0 0 0 0 0 0 0 0 0 0 0 0 0 0 0 0 0 0 0 0 0 0 0 0
0 0 0 0 0 0 0 0 0 0 0 0 0 0 0 0 0 0 0 0 0 0 0 0 0 0 0 0 0 0 0 0 0 0 0 0 0 0 0 0 0 0 0 0
0 0 0 0 0 0 0 0 0 0 0 0 0 0 0 0 0 0 0 0 0 0 0 0 0 0 0 0 0 0 0 0 0 0 0 0 0 0 0 0 0 0 0 0
0 0 0 0 0 0 0 0 0 0 0 0 0 0 0 0 0 0 0 0 0 0 0 0 0 0 0 0 0 0 0 0 0 0 0 0 0 0 0 0 0 0 0 0
0 0 0 0 0 0 0 0 0 0 0 0 0 0 0 0 0 0 0 0 0 0 0 0 0 0 0 0 0 0 0 0 0 0 0 0 0 0 0 0 0 0 0 0
0 0 0 0 0 0 0 0 0 0 0 0 0 0 0 0 0 0 0 0 0 0 0 0 0 0 0 0 0 0 0 0 0 0 0 0 0 0 0 0 0 0 0 0
0 0 0 0 0 0 0 0 0 0 0 0 0 0 0 0 0 0 0 0 0 0 0 0 0 0 0 0 0 0 0 0 0 0 0 0 0 0 0 0 0 0 0 0
0 0 0 0 0 0 0 0 0 0 0 0 0 0 0 0 0 0 0 0 0 0 0 0 0 0 0 0 0 0 0 0 0 0 0 0 0 0 0 0 0 0 0 0
0 0 0 0 0 0 0 0 0 0 0 0 0 0 0 0 0 0 0 0 0 0 0 0 0 0 0 0 0 0 0 0 0 0 0 0 0 0 0 0 0 0 0 0
0 0 0 0 0 0 0 0 0 0 0 0 0 0 0 0 0 0 0 0 0 0 0 0 0 0 0 0 0 0 0 0 0 0 0 0 0 0 0 0 0 0 0 0
0 0 0 0 0 0 0 0 0 0 0 0 0 0 0 0 0 0 0 0 0 0 0 0 0 0 0 0 0 0 0 0 0 0 0 0 0 0 0 0 0 0 0 0
0 0 0 0 0 0 0 0 0 0 0 0 0 0 0 0 0 0 0 0 0 0 0 0 0 0 0 0 0 0 0 0 0 0 0 0 0 0 0 0 0 0 0 0
0 0 0 0 0 0 0 0 0 0 0 0 0 0 0 0 0 0 0 0 0 0 0 0 0 0 0 0 0 0 0 0 0 0 0 0 0 0 0 0 0 0 0 0
0 0 0 0 0 0 0 0 0 0 0 0 0 0 0 0 0 0 0 0 0 0 0 0 0 0 0 0 0 0 0 0 0 0 0 0 0 0 0 0 0 0 0 0
0 0 0 0 0 0 0 0 0 0 0 0 0 0 0 0 0 0 0 0 0 0 0 0 0 0 0 0 0 0 0 0 0 0 0 0 0 0 0 0 0 0 0 0
0 0 0 0 0 0 0 0 0 0 0 0 0 0 0 0 0 0 0 0 0 0 0 0 0 0 0 0 0 0 0 0 0 0 0 0 0 0 0 0 0 0 0 0
Wind_Speed
2 4 3 4 4 5 6 8 12 10 4 8 12 14 10 9 12 15 16 17 19 20 21 20 17 11 6 7 8 9 9 8 6 5 5 5 4 4 4 3 4 4 4 4
4 0 4 4 2 4 7 11 11 6 3 8 11 10 6 11 14 14 16 18 20 21 22 22 20 15 10 9 10 10 11 10 9 6 5 4 4 3 2 3 3 3 3 3
4 5 6 4 5 7 8 8 9 13 14 5 7 4 12 10 14 15 17 17 20 21 22 22 22 21 16 11 11 10 11 10 10 8 5 4 4 4 5 5 4 3 3 3
3 5 5 4 4 6 6 5 11 14 13 6 4 5 9 8 11 15 17 18 20 20 21 21 21 22 20 16 12 12 12 11 10 9 8 9 7 7 7 5 4 4 4 4
4 5 6 5 5 6 7 11 13 11 8 8 4 7 5 6 6 13 16 17 18 19 19 20 20 20 19 19 15 12 13 13 11 10 9 9 9 7 5 5 6 5 4 4
4 1 4 5 3 2 8 12 8 4 5 6 3 5 4 5 7 11 15 16 17 18 18 18 19 19 18 19 17 15 14 14 12 11 10 10 10 8 8 8 7 6 4 4
5 3 4 5 6 3 9 9 6 4 4 2 2 8 2 9 9 11 14 16 17 17 17 18 20 21 20 21 20 18 17 15 14 13 12 11 10 10 10 9 8 7 5 5
7 2 5 6 5 7 5 5 5 7 8 9 6 7 6 9 6 9 13 15 16 17 18 19 20 20 20 20 20 20 20 18 16 15 14 12 11 8 8 8 7 6 5 3
6 6 2 3 3 4 2 2 3 7 11 10 7 3 7 5 7 14 18 20 21 20 20 20 20 20 20 20 20 21 21 20 17 15 14 12 11 9 7 5 4 3 2 1
3 8 6 5 2 2 3 2 3 5 9 11 13 10 2 5 16 24 27 25 21 19 18 19 19 19 19 19 19 19 20 21 19 16 12 8 8 6 5 3 3 2 2 2
3 6 6 5 3 5 4 1 3 5 7 9 12 8 9 10 19 24 24 21 20 19 20 20 20 19 18 17 17 17 18 19 17 13 8 6 5 4 4 4 3 2 3 3
3 5 7 5 4 2 2 1 3 7 10 10 13 12 7 15 23 23 23 22 21 21 21 23 23 21 18 16 15 15 14 15 15 12 6 1 2 3 3 3 3 3 3 4
4 5 8 3 4 3 1 2 6 9 9 11 15 15 12 25 25 23 24 24 23 24 26 26 25 22 17 14 13 12 11 11 11 9 6 3 2 2 2 3 3 4 4 4
4 6 8 10 10 6 10 14 13 10 9 12 15 21 23 25 25 26 26 26 27 28 29 28 25 22 18 14 12 10 9 8 8 8 7 5 5 3 3 3 4 4 2 2
4 5 5 10 11 10 15 17 12 10 10 11 15 20 24 24 25 27 28 30 31 31 29 27 25 22 19 18 13 8 6 6 6 6 6 5 5 4 3 4 3 3 2 2
3 4 3 6 4 8 15 13 7 5 7 11 17 22 21 23 24 26 30 31 30 28 28 28 27 24 21 19 14 7 4 4 4 4 5 5 5 5 5 4 4 2 1 2
3 3 4 4 5 10 8 2 3 6 8 11 19 20 21 27 28 29 30 27 25 27 28 28 25 22 19 17 11 4 2 3 3 4 5 5 5 5 5 4 4 3 2 3
4 3 2 5 6 5 3 4 4 9 12 16 15 16 24 28 28 27 23 21 26 27 26 24 20 18 16 11 4 3 4 4 5 5 6 6 6 6 5 4 4 3 2 2
4 3 2 3 6 10 5 4 6 11 19 11 13 23 27 28 25 18 17 23 24 24 22 19 16 14 11 7 5 5 6 6 6 7 7 8 8 7 5 4 3 3 2 1
3 3 3 2 6 6 2 4 5 11 11 9 21 25 26 25 20 15 22 24 23 22 18 15 13 11 10 10 8 8 8 8 8 8 8 8 8 7 6 5 4 3 2 1
3 4 4 6 6 8 5 4 11 10 13 21 23 23 22 18 16 20 24 22 20 19 17 13 12 12 11 11 9 9 9 9 8 7 7 7 7 7 6 5 4 4 3 2
4 4 4 4 6 6 2 9 9 13 19 20 21 19 19 19 20 20 19 18 18 16 15 13 11 11 11 11 10 9 10 9 8 7 6 7 7 6 5 5 4 4 4 3
5 4 3 6 7 9 10 12 13 14 17 18 17 18 17 17 16 16 15 15 14 14 12 11 10 10 10 11 10 10 10 9 8 7 7 7 7 6 6 5 4 4 3 3
3 3 5 8 10 11 14 14 12 12 14 15 15 14 13 13 13 13 12 12 12 12 12 11 10 10 10 11 11 10 10 9 8 8 7 7 7 6 6 4 4 4 4 4
5 4 5 9 11 12 9 8 12 12 13 13 12 11 11 12 12 12 11 11 11 10 10 10 9 9 10 10 11 11 11 10 9 8 7 7 7 6 6 5 4 6 5 5
5 7 5 5 7 9 14 14 12 10 11 11 11 10 10 10 11 10 9 9 9 10 9 9 9 10 10 10 10 11 11 10 10 8 8 7 6 6 6 6 5 4 6 9
Wind_Direction
339 258 303 352 343 324 312 299 301 309 337 314 300 305 349 61 56 50 45 39 34 30 27 23 14 355 307 264 249 245 243 233 229 226 225 221 219 216 213 213 214 218 213 212
244 189 7 320 283 281 291 295 305 314 321 310 306 305 81 82 61 50 43 36 30 22 21 20 17 10 337 292 263 250 246 240 234 233 233 234 221 218 205 192 196 209 206 200
337 25 344 309 311 309 303 305 320 315 319 277 295 239 138 97 70 52 41 32 28 21 16 13 10 8 355 322 284 267 257 248 238 229 218 205 202 207 204 201 194 196 202 193
30 15 353 338 5 338 317 347 311 305 308 300 331 281 161 121 70 41 31 26 22 19 15 12 8 4 358 343 313 286 276 261 244 231 228 224 222 221 219 212 203 202 207 207
30 10 2 11 5 332 319 312 295 294 282 271 223 247 182 124 56 30 24 21 19 16 12 9 7 360 357 352 336 306 289 276 260 246 240 236 234 235 225 217 219 223 210 212
31 45 12 346 323 313 310 298 277 220 237 237 173 256 234 85 51 25 19 16 14 10 6 5 2 358 355 353 346 328 301 285 273 259 247 238 234 227 223 225 226 224 212 202
12 93 39 350 332 347 348 333 313 288 255 257 158 266 243 109 62 30 14 9 6 4 2 0 358 355 352 349 345 336 320 297 279 266 256 247 241 235 231 229 227 226 216 203
346 353 38 18 3 327 347 340 338 313 303 303 279 261 121 119 68 17 9 3 360 359 358 355 352 348 345 344 342 338 328 311 288 269 259 256 251 246 243 234 227 221 218 203
348 312 48 33 337 315 328 44 342 288 284 282 269 253 140 138 14 360 357 358 357 355 350 346 341 339 338 338 339 337 329 316 298 275 261 257 254 249 249 241 228 207 172 134
334 292 310 344 215 66 12 3 290 281 299 296 298 293 302 48 2 357 353 349 344 340 337 335 331 331 332 332 333 335 333 322 307 289 268 258 254 242 221 195 173 132 89 38
331 280 298 314 338 332 333 302 299 284 279 290 298 323 62 19 357 348 341 338 333 329 329 327 325 324 324 325 330 335 338 334 325 308 275 239 226 209 184 148 118 74 46 18
357 300 281 294 23 334 295 331 302 296 292 275 284 295 81 352 345 340 333 329 326 323 322 321 320 319 320 322 325 332 338 341 343 340 331 297 181 165 139 107 88 61 35 14
335 282 291 232 150 122 77 265 288 296 289 274 273 282 335 337 333 332 330 326 321 318 319 320 319 317 317 318 318 325 336 340 342 344 343 351 19 67 89 85 61 44 26 356
305 255 257 292 327 329 294 283 290 293 277 283 286 301 320 325 327 329 328 322 318 317 319 319 319 316 318 318 310 311 326 336 340 344 350 358 9 16 42 59 49 37 13 357
340 275 269 279 296 292 278 282 296 282 272 279 300 310 317 325 327 325 323 321 319 319 320 321 320 318 318 318 311 300 310 334 344 349 355 354 355 360 25 53 50 35 24 19
340 284 280 270 286 295 278 288 290 268 278 290 302 308 324 322 322 322 321 319 318 321 323 322 319 317 317 316 313 300 309 347 357 359 359 357 357 3 18 28 22 14 28 58
289 283 292 274 313 293 283 59 8 319 313 311 309 314 321 321 325 323 318 318 326 326 321 317 314 312 311 312 314 310 5 25 18 12 9 4 0 1 5 8 10 13 40 62
232 229 261 292 315 271 73 65 355 322 308 310 312 325 325 320 321 314 315 337 330 323 320 318 316 313 313 321 354 62 58 42 29 21 15 7 360 357 0 6 12 13 30 61
222 236 251 281 287 280 296 64 7 328 309 323 334 326 324 322 315 313 345 338 325 323 323 323 325 325 335 5 42 57 50 39 29 19 13 5 358 355 358 7 12 6 355 26
164 229 238 233 286 280 349 52 331 303 297 359 335 327 326 324 320 327 335 329 331 335 338 343 352 8 19 25 34 42 37 30 21 11 6 4 359 356 0 5 5 356 342 351
203 200 225 242 257 272 330 343 321 310 324 331 327 327 324 319 310 310 322 333 342 348 357 11 27 33 28 26 32 35 28 18 6 359 2 6 3 357 359 354 355 345 339 328
271 240 224 227 242 268 359 321 324 316 318 321 325 325 319 313 311 318 330 341 351 358 9 18 30 33 27 23 25 25 18 3 358 359 6 7 6 1 354 349 351 348 333 310
241 253 274 237 263 310 316 304 309 317 317 323 324 322 319 317 321 331 341 350 356 3 9 16 23 28 23 18 17 15 6 357 358 3 8 8 5 5 357 349 351 345 333 323
246 236 255 268 272 286 296 305 320 324 321 322 323 324 330 331 335 342 347 353 357 3 8 10 15 17 15 12 14 10 3 358 1 8 9 8 6 5 3 354 351 343 335 334
269 228 243 261 281 296 297 313 326 323 324 325 326 337 342 339 341 347 351 356 358 0 4 7 7 8 9 9 12 8 4 0 358 4 6 2 2 353 350 351 350 335 331 328
220 220 237 280 306 305 305 321 330 326 326 326 327 336 348 350 345 350 355 356 356 358 358 358 1 5 6 8 10 8 3 2 358 354 355 354 351 345 343 337 331 331 324 326